Weather History for KUKI - May, 2013

Change the Weather History Date:

Thursday, May 23, 2013

  Actual Average Record
Temperature  
Mean Temperature 57 °F 63 °F  
Max Temperature 70 °F 79 °F 100 °F (1943)
Min Temperature 44 °F 48 °F 35 °F (1909)
Degree Days  
Heating Degree Days 8 4  
Month to date heating degree days 115  
Since 1 July heating degree days 3061  
Cooling Degree Days 0 2  
Month to date cooling degree days 32  
Year to date cooling degree days 40  
Growing Degree Days 6 (Base 50)    
Moisture  
Dew Point 37 °F    
Average Humidity 52    
Maximum Humidity 76    
Minimum Humidity 28    
Precipitation  
Precipitation 0.00 in 0.02 in 0.96 in (1960)
Month to date precipitation 0.02 1.21  
Year to date precipitation 5.15 22.83  
Since 1 July precipitation 27.85  
Snow  
Snow 0.00 in - - ()
Month to date snowfall 0.0  
Since 1 July snowfall 0.0  
Snow Depth -    
Sea Level Pressure  
Sea Level Pressure 29.99 in    
Wind  
Wind Speed 6 mph (NNW)    
Max Wind Speed 20 mph    
Max Gust Speed 25 mph    
Visibility 10 miles    
Events      
T = Trace of Precipitation, MM = Missing Value Source: NWS Daily Summary

Daily Weather History Graph

Daily Weather History Graph

Search for Another Location

Airport or City:

Trip Planner

Search our weather history database for the weather conditions in past years. The results will help you decide how hot, cold, wet, or windy it might be!

Date:

Astronomy

May. 23, 2013 Rise Set
Actual Time 5:53 AM PDT 8:26 PM PDT
Civil Twilight 5:22 AM PDT 8:57 PM PDT
Nautical Twilight 4:44 AM PDT 9:35 PM PDT
Astronomical Twilight 4:01 AM PDT 10:18 PM PDT
Moon 7:05 PM PDT (5/23) 4:41 AM PDT (5/23)
Length of Visible Light 15h 34m
Length of Day
14h 33m
Waxing Gibbous, 97% of the Moon is Illuminated
May 23
Waxing Gibbous
May 24
Full
May 31
Last Quarter
Jun 8
New
Jun 16
First Quarter

Hourly Weather History & Observations

Time (PDT) Temp. Windchill Dew Point Humidity Pressure Visibility Wind Dir Wind Speed Gust Speed Precip Events Conditions
12:56 AM 48.0 °F - 37.9 °F 68% 29.96 in 10.0 mi NNE 4.6 mph - N/A   Clear
1:56 AM 48.0 °F - 37.0 °F 66% 29.96 in 10.0 mi NNW 9.2 mph - N/A   Clear
2:56 AM 46.9 °F - 37.0 °F 68% 29.96 in 10.0 mi North 6.9 mph - N/A   Clear
3:56 AM 45.0 °F 43.5 °F 37.0 °F 74% 29.96 in 10.0 mi NE 3.5 mph - N/A   Clear
4:56 AM 45.0 °F 43.5 °F 36.0 °F 71% 29.95 in 10.0 mi North 3.5 mph - N/A   Clear
5:56 AM 44.1 °F 41.5 °F 36.0 °F 73% 29.96 in 10.0 mi NNE 4.6 mph - N/A   Clear
6:56 AM 46.0 °F 43.9 °F 36.0 °F 68% 29.97 in 10.0 mi Variable 4.6 mph - N/A   Clear
7:56 AM 50.0 °F - 35.1 °F 57% 29.98 in 10.0 mi NW 10.4 mph - N/A   Clear
8:56 AM 53.1 °F - 36.0 °F 52% 29.99 in 10.0 mi North 6.9 mph - N/A   Partly Cloudy
9:56 AM 55.0 °F - 36.0 °F 49% 29.98 in 10.0 mi Variable 3.5 mph - N/A   Clear
10:56 AM 59.0 °F - 37.0 °F 44% 29.99 in 10.0 mi Calm Calm - N/A   Clear
11:56 AM 63.0 °F - 36.0 °F 37% 29.98 in 10.0 mi Variable 4.6 mph - N/A   Clear
12:56 PM 66.0 °F - 33.1 °F 29% 29.97 in 10.0 mi North 8.1 mph - N/A   Clear
1:56 PM 68.0 °F - 35.1 °F 30% 29.98 in 10.0 mi NW 8.1 mph 17.3 mph N/A   Clear
2:56 PM 69.1 °F - 35.1 °F 29% 29.97 in 10.0 mi NNW 11.5 mph - N/A   Clear
3:56 PM 68.0 °F - 37.9 °F 33% 29.98 in 10.0 mi WNW 11.5 mph 20.7 mph N/A   Clear
4:56 PM 64.0 °F - 37.0 °F 37% 30.01 in 10.0 mi West 11.5 mph 25.3 mph N/A   Clear
5:56 PM 63.0 °F - 37.0 °F 38% 30.02 in 10.0 mi NW 8.1 mph 18.4 mph N/A   Clear
6:56 PM 61.0 °F - 37.9 °F 42% 30.01 in 10.0 mi NNW 10.4 mph - N/A   Clear
7:56 PM 59.0 °F - 37.9 °F 46% 30.01 in 10.0 mi NNW 5.8 mph - N/A   Clear
8:56 PM 55.9 °F - 37.9 °F 51% 30.03 in 10.0 mi NE 6.9 mph - N/A   Clear
9:56 PM 53.1 °F - 39.0 °F 59% 30.04 in 10.0 mi North 9.2 mph - N/A   Clear
10:56 PM 50.0 °F - 39.9 °F 68% 30.04 in 10.0 mi Calm Calm - N/A   Clear
11:56 PM 48.9 °F - 39.9 °F 71% 30.04 in 10.0 mi North 4.6 mph - N/A   Clear